Weather History for Avoca, PA

Change the Weather History Date:

Sunday, December 2, 2012

  Actual Average Record
Temperature  
Mean Temperature 45 °F 35 °F  
Max Temperature 51 °F 42 °F 69 °F (1914)
Min Temperature 39 °F 28 °F 6 °F (1976)
Degree Days  
Heating Degree Days 20 30  
Month to date heating degree days 47 59  
Since 1 July heating degree days 1274 1372  
Cooling Degree Days 0 0  
Month to date cooling degree days 0 0  
Year to date cooling degree days 864 580  
Moisture  
Dew Point 40 °F    
Average Humidity 80    
Maximum Humidity 93    
Minimum Humidity 66    
Precipitation  
Precipitation 0.04 in 0.10 in 0.97 in (1936)
Month to date precipitation 0.04 0.20  
Year to date precipitation 34.21 35.78  
Sea Level Pressure  
Sea Level Pressure 30.21 in    
Wind  
Wind Speed 4 mph (SSW)    
Max Wind Speed 13 mph    
Max Gust Speed 20 mph    
Visibility 7 miles    
Events Rain    
T = Trace of Precipitation, MM = Missing Value Source: NWS Daily Summary

Daily Weather History Graph

Daily Weather History Graph

Search for Another Location

Airport:

Trip Planner

Search our weather history database for the weather conditions in past years. The results will help you decide how hot, cold, wet, or windy it might be!

Date:

Astronomy

Dec. 02, 2012 Rise Set
Actual Time 7:10 AM EST 4:34 PM EST
Civil Twilight 6:40 AM EST 5:04 PM EST
Nautical Twilight 6:05 AM EST 5:39 PM EST
Astronomical Twilight 5:32 AM EST 6:12 PM EST
Moon 8:20 PM EST (12/2) 9:58 AM EST (12/2)
Length of Visible Light 10h 24m
Length of Day
9h 23m
Waning Gibbous, 86% of the Moon is Illuminated
Dec 2
Waning Gibbous
Dec 6
Last Quarter
Dec 13
New
Dec 20
First Quarter
Dec 28
Full

Hourly Weather History & Observations

Time (EST) Temp. Windchill Dew Point Humidity Pressure Visibility Wind Dir Wind Speed Gust Speed Precip Events Conditions
12:39 AM 41.0 °F - 37.4 °F 87% 30.37 in 10.0 mi Calm Calm - N/A   Overcast
12:54 AM 41.0 °F 39.0 °F 37.9 °F 89% 30.38 in 10.0 mi SSE 3.5 mph - N/A   Overcast
1:54 AM 41.0 °F - 37.9 °F 89% 30.36 in 9.0 mi Calm Calm - N/A   Overcast
2:01 AM 41.0 °F - 37.4 °F 87% 30.34 in 9.0 mi Calm Calm - N/A   Overcast
2:54 AM 41.0 °F - 37.0 °F 86% 30.37 in 9.0 mi Calm Calm - N/A   Overcast
3:54 AM 41.0 °F - 37.9 °F 89% 30.35 in 10.0 mi Calm Calm - N/A   Overcast
4:18 AM 42.8 °F 39.3 °F 37.4 °F 81% 30.33 in 10.0 mi Variable 5.8 mph - N/A   Overcast
4:54 AM 41.0 °F 37.1 °F 37.0 °F 86% 30.34 in 9.0 mi SW 5.8 mph - N/A   Overcast
5:20 AM 39.2 °F 35.0 °F 37.4 °F 93% 30.31 in 9.0 mi South 5.8 mph - N/A   Scattered Clouds
5:54 AM 39.9 °F 36.7 °F 37.0 °F 89% 30.32 in 9.0 mi SSW 4.6 mph - N/A   Clear
6:54 AM 39.9 °F - 36.0 °F 86% 30.30 in 9.0 mi Calm Calm - N/A   Clear
7:54 AM 41.0 °F 39.0 °F 36.0 °F 82% 30.30 in 8.0 mi SW 3.5 mph - N/A   Partly Cloudy
8:25 AM 41.0 °F 39.0 °F 35.6 °F 81% 30.29 in 8.0 mi South 3.5 mph - N/A   Mostly Cloudy
8:41 AM 41.0 °F 39.0 °F 35.6 °F 81% 30.29 in 8.0 mi SSW 3.5 mph - N/A   Scattered Clouds
8:54 AM 42.1 °F 37.7 °F 36.0 °F 79% 30.29 in 8.0 mi South 6.9 mph - N/A   Partly Cloudy
9:54 AM 43.0 °F 39.5 °F 37.0 °F 80% 30.27 in 8.0 mi SSW 5.8 mph - N/A   Mostly Cloudy
10:54 AM 45.0 °F 41.8 °F 37.9 °F 76% 30.24 in 9.0 mi SSW 5.8 mph - N/A   Mostly Cloudy
11:54 AM 46.0 °F 41.9 °F 37.9 °F 73% 30.20 in 9.0 mi SSW 8.1 mph - N/A   Clear
12:54 PM 48.9 °F - 39.0 °F 69% 30.15 in 9.0 mi SSW 10.4 mph 16.1 mph N/A   Clear
1:54 PM 50.0 °F - 39.9 °F 68% 30.12 in 9.0 mi Variable 6.9 mph - 0.01 in   Clear
2:54 PM 50.0 °F - 39.9 °F 68% 30.10 in 8.0 mi South 6.9 mph - N/A   Clear
3:54 PM 48.0 °F - 39.9 °F 74% 30.08 in 7.0 mi SSW 3.5 mph - N/A   Mostly Cloudy
4:54 PM 46.9 °F - 39.9 °F 77% 30.07 in 7.0 mi South 9.2 mph 16.1 mph N/A   Mostly Cloudy
5:54 PM 46.9 °F - 42.1 °F 83% 30.08 in 5.0 mi SW 8.1 mph - 0.00 in Rain Light Rain
6:33 PM 46.4 °F 45.2 °F 42.8 °F 87% 30.08 in 5.0 mi SSW 3.5 mph - 0.02 in   Overcast
6:54 PM 46.0 °F - 43.0 °F 89% 30.10 in 4.0 mi Calm Calm - 0.02 in   Overcast
7:07 PM 46.4 °F - 44.6 °F 93% 30.09 in 3.0 mi Calm Calm - N/A   Overcast
7:14 PM 46.4 °F - 44.6 °F 93% 30.09 in 2.5 mi Calm Calm - 0.00 in Rain Light Rain
7:54 PM 46.0 °F - 44.1 °F 93% 30.10 in 2.5 mi Calm Calm - 0.01 in Rain Light Rain
8:54 PM 46.0 °F - 44.1 °F 93% 30.12 in 2.5 mi Calm Calm - 0.00 in   Overcast
9:33 PM 46.4 °F 45.2 °F 44.6 °F 93% 30.10 in 2.5 mi SSW 3.5 mph - N/A   Overcast
9:51 PM 46.4 °F - 44.6 °F 93% 30.10 in 2.5 mi Calm Calm - N/A   Overcast
9:54 PM 46.0 °F - 44.1 °F 93% 30.12 in 2.5 mi Calm Calm - N/A   Overcast
10:54 PM 46.9 °F - 44.1 °F 90% 30.11 in 3.0 mi Calm Calm - N/A   Overcast
11:20 PM 46.4 °F - 44.6 °F 93% 30.10 in 3.0 mi Calm Calm - N/A   Overcast
11:54 PM 46.9 °F - 44.1 °F 90% 30.11 in 3.0 mi Calm Calm - N/A   Overcast